StationID,Date,MaxTemp,MinTemp,Precipitation,Snowfall,SnowDepth
"USC00505010","1955-02-15",26.96,-13.00,0.00,0.00,457.00
"USC00505010","1955-02-16",33.98,19.94,206.00,140.00,533.00
"USC00505010","1955-02-17",35.96,30.02,10.00,30.00,508.00
"USC00505010","1955-02-18",39.92,32.00,64.00,0.00,381.00
"USC00505010","1955-02-19",37.04,26.06,61.00,38.00,381.00
"USC00505010","1955-02-20",35.06,21.92,25.00,18.00,381.00
"USC00505010","1955-02-21",37.94,26.06,79.00,76.00,457.00
"USC00505010","1955-02-22",28.94,24.08,81.00,79.00,533.00
"USC00505010","1955-02-23",24.98,3.92,0.00,0.00,533.00
"USC00505010","1955-02-24",26.96,-2.02,0.00,0.00,533.00
"USC00505010","1955-02-25",33.98,17.96,0.00,0.00,508.00
"USC00505010","1955-02-26",37.04,26.96,38.00,25.00,483.00
"USC00505010","1955-02-27",28.94,10.94,0.00,0.00,483.00
"USC00505010","1955-02-28",14.00,3.92,0.00,0.00,483.00
"USC00505010","1955-03-01",14.00,3.02,0.00,0.00,483.00
"USC00505010","1955-03-02",26.96,-2.02,0.00,0.00,483.00
"USC00505010","1955-03-03",33.08,19.94,165.00,76.00,559.00
"USC00505010","1955-03-04",39.92,,69.00,0.00,457.00
"USC00505010","1955-03-05",41.00,28.94,0.00,0.00,356.00
"USC00505010","1955-03-06",42.98,32.00,13.00,0.00,305.00
"USC00505010","1955-03-07",32.00,23.00,0.00,0.00,305.00
"USC00505010","1955-03-08",37.94,26.06,53.00,0.00,279.00
"USC00505010","1955-03-09",39.92,30.02,69.00,0.00,254.00
"USC00505010","1955-03-10",30.02,8.96,0.00,0.00,254.00
"USC00505010","1955-03-11",8.96,-2.02,0.00,0.00,254.00
"USC00505010","1955-03-12",8.96,-7.96,0.00,0.00,254.00
"USC00505010","1955-03-13",28.04,-9.94,0.00,0.00,254.00
"USC00505010","1955-03-14",30.92,26.06,56.00,53.00,305.00
"USC00505010","1955-03-15",33.08,8.06,0.00,0.00,305.00
"USC00505010","1955-03-16",33.98,21.92,64.00,89.00,381.00
"USC00505010","1955-03-17",33.08,19.04,38.00,51.00,406.00
"USC00505010","1955-03-18",30.92,14.00,0.00,0.00,381.00
"USC00505010","1955-03-19",37.94,28.04,0.00,0.00,356.00
"USC00505010","1955-03-20",28.94,6.98,0.00,0.00,356.00
"USC00505010","1955-03-21",15.98,-9.04,0.00,0.00,356.00
"USC00505010","1955-03-22",30.02,-14.08,0.00,0.00,356.00
"USC00505010","1955-03-23",35.06,17.06,0.00,0.00,356.00
"USC00505010","1955-03-24",37.04,32.00,76.00,71.00,381.00
"USC00505010","1955-03-25",37.94,32.00,13.00,13.00,305.00
"USC00505010","1955-03-26",37.94,26.96,0.00,0.00,279.00
"USC00505010","1955-03-27",37.94,8.96,0.00,0.00,254.00
"USC00505010","1955-03-28",32.00,23.00,137.00,81.00,305.00
"USC00505010","1955-03-29",37.94,17.06,0.00,0.00,254.00
"USC00505010","1955-03-30",41.00,12.92,0.00,0.00,229.00
"USC00505010","1955-03-31",32.00,6.98,0.00,0.00,229.00
"USC00505010","1955-04-01",30.02,19.04,0.00,0.00,229.00
"USC00505010","1955-04-02",24.98,6.08,0.00,0.00,229.00
"USC00505010","1955-04-03",30.92,-7.06,0.00,0.00,229.00
"USC00505010","1955-04-04",37.94,21.02,0.00,0.00,203.00
"USC00505010","1955-04-05",35.96,17.06,0.00,0.00,203.00
"USC00505010","1955-04-06",33.98,21.02,0.00,0.00,203.00
"USC00505010","1955-04-07",24.08,15.98,0.00,0.00,203.00
"USC00505010","1955-04-08",19.94,3.92,0.00,0.00,203.00
"USC00505010","1955-04-09",21.02,8.06,0.00,0.00,203.00
"USC00505010","1955-04-10",24.08,8.96,0.00,0.00,203.00
"USC00505010","1955-04-11",21.02,-4.00,0.00,0.00,203.00
"USC00505010","1955-04-12",26.96,-5.08,0.00,0.00,203.00
"USC00505010","1955-04-13",35.06,1.04,79.00,20.00,203.00
"USC00505010","1955-04-14",39.02,28.94,124.00,102.00,203.00
"USC00505010","1955-04-15",39.02,35.06,0.00,0.00,152.00
"USC00505010","1955-04-16",39.02,17.06,130.00,0.00,127.00
"USC00505010","1955-04-17",37.94,28.94,20.00,0.00,76.00
"USC00505010","1955-04-18",42.98,24.98,0.00,0.00,76.00
"USC00505010","1955-04-19",39.02,24.98,3.00,0.00,51.00
"USC00505010","1955-04-20",37.04,24.08,0.00,0.00,51.00
"USC00505010","1955-04-21",30.92,21.92,0.00,0.00,51.00
"USC00505010","1955-04-22",28.94,10.04,0.00,0.00,51.00
"USC00505010","1955-04-23",23.00,10.04,0.00,0.00,51.00
"USC00505010","1955-04-24",23.00,12.92,0.00,0.00,51.00
"USC00505010","1955-04-25",37.04,5.00,0.00,0.00,25.00
"USC00505010","1955-04-26",41.00,30.02,0.00,0.00,25.00
"USC00505010","1955-04-27",41.00,28.04,0.00,0.00,25.00
"USC00505010","1955-04-28",42.98,33.08,66.00,0.00,0.00
"USC00505010","1955-04-29",41.00,32.00,0.00,0.00,0.00
"USC00505010","1955-04-30",42.98,30.92,0.00,0.00,0.00
"USC00505010","1955-05-01",44.96,23.00,0.00,0.00,0.00
"USC00505010","1955-05-02",41.00,35.06,104.00,0.00,0.00
"USC00505010","1955-05-03",44.96,32.00,193.00,0.00,0.00
"USC00505010","1955-05-04",46.94,35.06,25.00,0.00,0.00
"USC00505010","1955-05-05",44.96,35.06,15.00,0.00,0.00
"USC00505010","1955-05-06",46.94,30.92,0.00,0.00,0.00
"USC00505010","1955-05-07",48.02,32.00,0.00,0.00,0.00
"USC00505010","1955-05-08",50.00,26.06,0.00,0.00,0.00
"USC00505010","1955-05-09",51.98,28.04,0.00,0.00,0.00
"USC00505010","1955-05-10",51.08,21.02,0.00,0.00,0.00
"USC00505010","1955-05-11",48.02,28.94,0.00,0.00,0.00
"USC00505010","1955-05-12",,,,0.00,0.00
"USC00505010","1955-05-13",42.08,37.94,,0.00,0.00
"USC00505010","1955-05-14",46.04,35.96,356.00,0.00,0.00
"USC00505010","1955-05-15",44.06,33.98,127.00,0.00,0.00
"USC00505010","1955-05-16",50.00,35.96,0.00,0.00,0.00
"USC00505010","1955-05-17",51.08,33.08,5.00,0.00,0.00
"USC00505010","1955-05-18",53.06,30.02,0.00,0.00,0.00
"USC00505010","1955-05-19",50.00,30.92,0.00,0.00,0.00
"USC00505010","1955-05-20",48.02,28.04,0.00,0.00,0.00
"USC00505010","1955-05-21",46.04,30.02,15.00,0.00,0.00
"USC00505010","1955-05-22",42.08,35.96,284.00,0.00,0.00
"USC00505010","1955-05-23",41.00,,584.00,0.00,0.00
"USC00505010","1955-05-24",42.08,37.94,221.00,0.00,0.00
"USC00505010","1955-05-25",51.98,33.98,0.00,0.00,0.00
"USC00505010","1955-05-26",46.94,33.98,0.00,0.00,0.00
"USC00505010","1955-05-27",50.00,35.96,0.00,0.00,0.00
"USC00505010","1955-05-28",50.00,39.92,8.00,0.00,0.00
"USC00505010","1955-05-29",50.00,35.06,0.00,0.00,0.00
"USC00505010","1955-05-30",46.04,37.04,33.00,0.00,0.00
"USC00505010","1955-05-31",48.02,37.94,0.00,0.00,0.00
"USC00505010","1955-06-01",50.00,33.98,10.00,0.00,0.00
"USC00505010","1955-06-02",48.92,30.02,8.00,0.00,0.00
"USC00505010","1955-06-03",50.00,33.98,0.00,0.00,0.00
"USC00505010","1955-06-04",53.96,35.06,56.00,0.00,0.00
"USC00505010","1955-06-05",51.08,35.06,0.00,0.00,0.00
"USC00505010","1955-06-06",50.00,33.98,0.00,0.00,0.00
"USC00505010","1955-06-07",53.96,37.94,0.00,0.00,0.00
"USC00505010","1955-06-08",51.98,37.04,56.00,0.00,0.00
"USC00505010","1955-06-09",53.06,35.06,13.00,0.00,0.00
"USC00505010","1955-06-10",48.92,33.08,28.00,0.00,0.00
"USC00505010","1955-06-11",53.96,37.04,89.00,0.00,0.00
"USC00505010","1955-06-12",51.98,39.92,0.00,0.00,0.00
"USC00505010","1955-06-13",51.08,37.94,56.00,0.00,0.00
"USC00505010","1955-06-14",60.98,37.94,0.00,0.00,0.00
"USC00505010","1955-06-15",64.94,42.98,0.00,0.00,0.00
"USC00505010","1955-06-16",64.04,37.04,0.00,0.00,0.00
"USC00505010","1955-06-17",71.96,33.98,0.00,0.00,0.00
"USC00505010","1955-06-18",73.94,39.02,0.00,0.00,0.00
"USC00505010","1955-06-19",71.96,42.98,0.00,0.00,0.00
"USC00505010","1955-06-20",51.98,41.00,107.00,0.00,0.00
"USC00505010","1955-06-21",51.98,42.98,61.00,0.00,0.00
"USC00505010","1955-06-22",50.00,44.06,0.00,0.00,0.00
"USC00505010","1955-06-23",48.92,41.00,0.00,0.00,0.00
"USC00505010","1955-06-24",59.00,42.98,25.00,0.00,0.00
"USC00505010","1955-06-25",55.04,39.92,0.00,0.00,0.00
"USC00505010","1955-06-26",55.04,42.08,28.00,0.00,0.00
"USC00505010","1955-06-27",51.08,33.98,51.00,0.00,0.00
"USC00505010","1955-06-28",51.08,41.00,36.00,0.00,0.00
"USC00505010","1955-06-29",51.98,39.92,0.00,0.00,0.00
"USC00505010","1955-06-30",64.04,46.04,0.00,0.00,0.00
"USC00505010","1955-07-01",64.04,33.98,0.00,0.00,0.00
"USC00505010","1955-07-02",53.96,42.08,8.00,0.00,0.00
"USC00505010","1955-07-03",53.96,42.98,76.00,0.00,0.00
"USC00505010","1955-07-04",57.02,41.00,5.00,0.00,0.00
"USC00505010","1955-07-05",57.02,35.06,0.00,0.00,0.00
"USC00505010","1955-07-06",51.98,42.98,0.00,0.00,0.00
"USC00505010","1955-07-07",51.08,44.96,0.00,0.00,0.00
"USC00505010","1955-07-08",51.08,46.04,8.00,0.00,0.00
"USC00505010","1955-07-09",55.94,46.04,28.00,0.00,0.00
"USC00505010","1955-07-10",55.04,44.96,64.00,0.00,0.00
"USC00505010","1955-07-11",55.94,44.06,0.00,0.00,0.00
"USC00505010","1955-07-12",60.08,39.92,0.00,0.00,0.00
"USC00505010","1955-07-13",62.06,44.06,10.00,0.00,0.00
"USC00505010","1955-07-14",55.94,46.04,64.00,0.00,0.00
"USC00505010","1955-07-15",57.92,44.06,5.00,0.00,0.00
"USC00505010","1955-07-16",55.04,42.98,0.00,0.00,0.00
"USC00505010","1955-07-17",57.92,44.06,0.00,0.00,0.00
"USC00505010","1955-07-18",57.92,44.96,0.00,0.00,0.00
"USC00505010","1955-07-19",71.96,46.94,0.00,0.00,0.00
"USC00505010","1955-07-20",73.04,46.94,0.00,0.00,0.00
"USC00505010","1955-07-21",75.92,44.96,0.00,0.00,0.00
"USC00505010","1955-07-22",77.00,42.98,0.00,0.00,0.00
"USC00505010","1955-07-23",78.08,53.06,0.00,0.00,0.00
"USC00505010","1955-07-24",62.96,48.92,0.00,0.00,0.00
"USC00505010","1955-07-25",55.04,46.94,10.00,0.00,0.00
"USC00505010","1955-07-26",53.96,46.94,130.00,0.00,0.00
"USC00505010","1955-07-27",62.96,44.06,28.00,0.00,0.00
"USC00505010","1955-07-28",66.02,41.00,0.00,0.00,0.00
"USC00505010","1955-07-29",59.00,48.92,33.00,0.00,0.00
"USC00505010","1955-07-30",73.04,46.94,0.00,0.00,0.00
"USC00505010","1955-07-31",78.08,48.02,0.00,0.00,0.00
"USC00505010","1955-08-01",71.96,48.92,0.00,0.00,0.00
"USC00505010","1955-08-02",60.08,46.04,0.00,0.00,0.00
"USC00505010","1955-08-03",60.98,46.94,0.00,0.00,0.00
"USC00505010","1955-08-04",59.00,46.04,20.00,0.00,0.00
"USC00505010","1955-08-05",64.94,46.94,38.00,0.00,0.00
"USC00505010","1955-08-06",73.94,39.02,8.00,0.00,0.00
"USC00505010","1955-08-07",71.96,42.08,58.00,0.00,0.00
"USC00505010","1955-08-08",64.04,39.02,18.00,0.00,0.00
"USC00505010","1955-08-09",69.98,37.04,0.00,0.00,0.00
"USC00505010","1955-08-10",66.92,46.94,18.00,0.00,0.00
"USC00505010","1955-08-11",62.96,44.96,142.00,0.00,0.00
"USC00505010","1955-08-12",60.98,46.94,30.00,0.00,0.00
"USC00505010","1955-08-13",60.98,39.02,0.00,0.00,0.00
"USC00505010","1955-08-14",59.00,46.94,0.00,0.00,0.00
"USC00505010","1955-08-15",53.06,44.96,81.00,0.00,0.00
"USC00505010","1955-08-16",66.02,44.96,71.00,0.00,0.00
"USC00505010","1955-08-17",62.06,41.00,0.00,0.00,0.00
"USC00505010","1955-08-18",66.02,51.98,0.00,0.00,0.00
"USC00505010","1955-08-19",55.94,42.08,3.00,0.00,0.00
"USC00505010","1955-08-20",66.02,42.08,0.00,0.00,0.00
"USC00505010","1955-08-21",62.06,,0.00,0.00,0.00
"USC00505010","1955-08-22",55.94,44.06,51.00,0.00,0.00
"USC00505010","1955-08-23",57.02,42.98,114.00,0.00,0.00
"USC00505010","1955-08-24",55.04,39.92,76.00,0.00,0.00
"USC00505010","1955-08-25",55.04,37.94,46.00,0.00,0.00
"USC00505010","1955-08-26",53.96,37.04,279.00,0.00,0.00
"USC00505010","1955-08-27",57.02,39.92,117.00,0.00,0.00
"USC00505010","1955-08-28",53.96,37.94,0.00,0.00,0.00
"USC00505010","1955-08-29",51.98,35.96,0.00,0.00,0.00
"USC00505010","1955-08-30",53.96,26.06,0.00,0.00,0.00
"USC00505010","1955-08-31",64.04,39.92,53.00,0.00,0.00
"USC00505010","1955-09-01",64.04,44.06,3.00,0.00,0.00
"USC00505010","1955-09-02",60.08,42.98,43.00,0.00,0.00
"USC00505010","1955-09-03",60.08,44.06,3.00,0.00,0.00
"USC00505010","1955-09-04",60.08,39.92,0.00,0.00,0.00
"USC00505010","1955-09-05",57.92,37.04,0.00,0.00,0.00
"USC00505010","1955-09-06",57.02,39.02,3.00,0.00,0.00
"USC00505010","1955-09-07",53.06,46.94,5.00,0.00,0.00
"USC00505010","1955-09-08",55.04,46.94,84.00,0.00,0.00
"USC00505010","1955-09-09",55.04,44.06,0.00,0.00,0.00
"USC00505010","1955-09-10",55.94,39.02,79.00,0.00,0.00
"USC00505010","1955-09-11",48.92,41.00,104.00,0.00,0.00
"USC00505010","1955-09-12",53.96,42.98,33.00,0.00,0.00
"USC00505010","1955-09-13",55.04,39.92,0.00,0.00,0.00
"USC00505010","1955-09-14",55.94,33.08,0.00,0.00,0.00
"USC00505010","1955-09-15",51.08,37.94,3.00,0.00,0.00
"USC00505010","1955-09-16",53.06,26.06,0.00,0.00,0.00
"USC00505010","1955-09-17",51.08,24.98,0.00,0.00,0.00
"USC00505010","1955-09-18",53.96,33.08,0.00,0.00,0.00
"USC00505010","1955-09-19",57.02,42.08,0.00,0.00,0.00
"USC00505010","1955-09-20",51.98,41.00,3.00,0.00,0.00
"USC00505010","1955-09-21",48.92,42.08,20.00,0.00,0.00
"USC00505010","1955-09-22",,42.98,0.00,0.00,0.00
"USC00505010","1955-09-23",53.96,42.08,61.00,0.00,0.00
"USC00505010","1955-09-24",55.94,37.94,0.00,0.00,0.00
"USC00505010","1955-09-25",48.92,30.02,8.00,0.00,0.00
"USC00505010","1955-09-26",50.00,44.96,13.00,0.00,0.00
"USC00505010","1955-09-27",48.02,41.00,61.00,0.00,0.00
"USC00505010","1955-09-28",48.02,39.02,51.00,0.00,0.00
"USC00505010","1955-09-29",51.98,35.06,0.00,0.00,0.00
"USC00505010","1955-09-30",50.00,39.92,43.00,0.00,0.00
"USC00505010","1955-10-01",48.92,35.96,94.00,0.00,0.00
"USC00505010","1955-10-02",44.96,28.94,58.00,0.00,0.00
"USC00505010","1955-10-03",42.98,30.92,124.00,0.00,0.00
"USC00505010","1955-10-04",41.00,30.92,135.00,0.00,0.00
"USC00505010","1955-10-05",44.96,24.98,18.00,0.00,0.00
"USC00505010","1955-10-06",42.08,30.92,33.00,0.00,0.00
"USC00505010","1955-10-07",42.08,24.98,0.00,0.00,0.00
"USC00505010","1955-10-08",42.08,28.94,13.00,0.00,0.00
"USC00505010","1955-10-09",39.02,30.92,0.00,0.00,0.00
"USC00505010","1955-10-10",35.96,17.06,0.00,0.00,0.00
"USC00505010","1955-10-11",35.96,28.94,0.00,0.00,0.00
"USC00505010","1955-10-12",37.04,28.94,0.00,0.00,0.00
"USC00505010","1955-10-13",39.02,14.00,0.00,0.00,0.00
"USC00505010","1955-10-14",46.04,32.00,10.00,25.00,0.00
"USC00505010","1955-10-15",42.08,33.98,79.00,0.00,0.00
"USC00505010","1955-10-16",37.94,12.92,0.00,0.00,0.00
"USC00505010","1955-10-17",33.08,12.92,0.00,0.00,0.00
"USC00505010","1955-10-18",41.00,30.02,28.00,0.00,0.00
"USC00505010","1955-10-19",30.02,21.02,0.00,0.00,0.00
"USC00505010","1955-10-20",33.98,19.94,0.00,0.00,0.00
"USC00505010","1955-10-21",,,79.00,0.00,0.00
"USC00505010","1955-10-22",,,234.00,0.00,0.00
"USC00505010","1955-10-23",44.96,28.94,0.00,0.00,0.00
"USC00505010","1955-10-24",39.02,26.96,0.00,0.00,0.00
"USC00505010","1955-10-25",33.98,28.04,0.00,0.00,0.00
"USC00505010","1955-10-26",30.02,12.92,0.00,0.00,0.00
"USC00505010","1955-10-27",35.96,24.98,0.00,0.00,0.00
"USC00505010","1955-10-28",39.92,32.00,0.00,0.00,0.00
"USC00505010","1955-10-29",33.08,21.02,0.00,0.00,0.00
"USC00505010","1955-10-30",30.02,17.96,0.00,0.00,0.00
"USC00505010","1955-10-31",28.94,12.92,0.00,0.00,0.00
"USC00505010","1955-11-01",30.02,3.02,0.00,0.00,0.00
"USC00505010","1955-11-02",32.00,-0.04,0.00,0.00,0.00
"USC00505010","1955-11-03",28.04,1.04,0.00,0.00,0.00
"USC00505010","1955-11-04",24.98,15.98,0.00,0.00,0.00
"USC00505010","1955-11-05",21.92,8.06,0.00,0.00,0.00
"USC00505010","1955-11-06",24.98,-0.94,0.00,0.00,0.00
"USC00505010","1955-11-07",21.92,6.98,0.00,0.00,0.00
"USC00505010","1955-11-08",17.06,3.92,0.00,25.00,25.00
"USC00505010","1955-11-09",14.00,6.98,0.00,0.00,25.00
"USC00505010","1955-11-10",26.96,6.98,0.00,0.00,0.00
"USC00505010","1955-11-11",33.08,24.98,0.00,0.00,0.00
"USC00505010","1955-11-12",35.06,32.00,117.00,114.00,51.00
"USC00505010","1955-11-13",37.04,30.92,5.00,0.00,25.00
"USC00505010","1955-11-14",39.02,35.06,15.00,0.00,0.00
"USC00505010","1955-11-15",39.02,24.98,0.00,0.00,0.00
"USC00505010","1955-11-16",24.98,17.06,0.00,0.00,0.00
"USC00505010","1955-11-17",17.06,6.98,0.00,0.00,0.00
"USC00505010","1955-11-18",14.00,6.08,0.00,0.00,0.00
"USC00505010","1955-11-19",26.06,12.92,0.00,0.00,0.00
"USC00505010","1955-11-20",24.98,8.06,0.00,0.00,0.00
"USC00505010","1955-11-21",28.94,17.06,0.00,0.00,0.00
"USC00505010","1955-11-22",32.00,12.92,0.00,0.00,0.00
"USC00505010","1955-11-23",28.94,19.94,0.00,0.00,0.00
"USC00505010","1955-11-24",35.96,24.98,0.00,0.00,0.00
"USC00505010","1955-11-25",33.08,12.92,0.00,0.00,0.00
"USC00505010","1955-11-26",28.04,21.02,0.00,0.00,0.00
"USC00505010","1955-11-27",39.02,19.94,0.00,0.00,0.00
"USC00505010","1955-11-28",39.92,24.98,0.00,0.00,0.00
"USC00505010","1955-11-29",33.08,15.08,0.00,0.00,0.00
"USC00505010","1955-11-30",19.94,8.06,0.00,0.00,0.00
"USC00505010","1955-12-01",17.96,10.04,0.00,0.00,0.00
"USC00505010","1955-12-02",28.04,15.08,191.00,76.00,76.00
"USC00505010","1955-12-03",28.04,-2.02,0.00,0.00,76.00
"USC00505010","1955-12-04",30.92,-7.06,0.00,0.00,51.00
"USC00505010","1955-12-05",37.04,26.96,0.00,0.00,51.00
"USC00505010","1955-12-06",28.94,3.02,0.00,0.00,51.00
"USC00505010","1955-12-07",10.94,-9.04,0.00,0.00,51.00
"USC00505010","1955-12-08",-0.04,-7.96,0.00,0.00,51.00
"USC00505010","1955-12-09",-7.96,-14.98,0.00,0.00,51.00
"USC00505010","1955-12-10",-4.00,-9.94,0.00,0.00,51.00
"USC00505010","1955-12-11",17.06,-14.08,0.00,0.00,51.00
"USC00505010","1955-12-12",28.04,-5.08,10.00,18.00,51.00
"USC00505010","1955-12-13",32.00,23.00,0.00,0.00,51.00
"USC00505010","1955-12-14",26.96,10.94,0.00,0.00,51.00
"USC00505010","1955-12-15",17.06,-5.08,0.00,0.00,51.00
"USC00505010","1955-12-16",8.06,-5.98,0.00,0.00,51.00
"USC00505010","1955-12-17",28.04,5.00,0.00,0.00,51.00
"USC00505010","1955-12-18",19.94,-0.04,0.00,0.00,51.00
"USC00505010","1955-12-19",-0.04,-18.94,0.00,0.00,51.00
"USC00505010","1955-12-20",-5.08,-22.00,0.00,0.00,51.00
"USC00505010","1955-12-21",10.04,-18.94,0.00,0.00,51.00
"USC00505010","1955-12-22",30.92,5.00,0.00,0.00,51.00
"USC00505010","1955-12-23",28.04,5.00,0.00,0.00,51.00
"USC00505010","1955-12-24",5.00,-9.94,0.00,0.00,51.00
"USC00505010","1955-12-25",15.98,-0.04,0.00,0.00,51.00
"USC00505010","1955-12-26",21.92,-2.92,0.00,0.00,51.00
"USC00505010","1955-12-27",24.08,-5.08,53.00,81.00,127.00
"USC00505010","1955-12-28",26.06,5.00,135.00,109.00,229.00
"USC00505010","1955-12-29",24.98,-9.94,0.00,0.00,229.00
"USC00505010","1955-12-30",-7.06,-14.08,51.00,127.00,356.00
"USC00505010","1955-12-31",-5.08,-14.08,0.00,0.00,356.00
"USC00505010","1956-01-01",-4.00,-9.94,0.00,0.00,330.00
"USC00505010","1956-01-02",-9.04,-25.96,0.00,0.00,330.00
"USC00505010","1956-01-03",-4.00,-13.00,104.00,51.00,381.00
"USC00505010","1956-01-04",-4.00,-20.02,0.00,0.00,356.00
"USC00505010","1956-01-05",-7.96,-27.94,0.00,0.00,356.00
"USC00505010","1956-01-06",-2.02,-23.08,0.00,0.00,356.00
"USC00505010","1956-01-07",15.98,-5.08,0.00,0.00,356.00
"USC00505010","1956-01-08",14.00,-9.94,0.00,0.00,356.00
"USC00505010","1956-01-09",8.06,-20.02,0.00,0.00,356.00
"USC00505010","1956-01-10",-14.08,-34.06,0.00,0.00,356.00
"USC00505010","1956-01-11",-7.96,-34.96,0.00,0.00,330.00
"USC00505010","1956-01-12",-4.00,-25.96,0.00,0.00,330.00
"USC00505010","1956-01-13",1.94,-18.04,0.00,0.00,330.00
"USC00505010","1956-01-14",10.94,-14.08,0.00,0.00,330.00
"USC00505010","1956-01-15",10.94,-18.04,0.00,0.00,330.00
"USC00505010","1956-01-16",8.96,-20.02,0.00,0.00,330.00
"USC00505010","1956-01-17",8.06,-4.00,36.00,28.00,356.00
"USC00505010","1956-01-18",14.00,-18.94,0.00,0.00,356.00
"USC00505010","1956-01-19",17.96,-11.92,28.00,25.00,381.00
"USC00505010","1956-01-20",15.08,-20.02,0.00,13.00,406.00
"USC00505010","1956-01-21",6.08,-4.00,0.00,0.00,406.00
"USC00505010","1956-01-22",-2.02,-14.98,0.00,0.00,406.00
"USC00505010","1956-01-23",-5.08,-11.02,0.00,0.00,381.00
"USC00505010","1956-01-24",-5.08,-20.92,0.00,0.00,381.00
"USC00505010","1956-01-25",-2.02,-29.92,0.00,0.00,381.00
"USC00505010","1956-01-26",24.98,-23.08,0.00,0.00,381.00
"USC00505010","1956-01-27",30.02,19.94,0.00,0.00,381.00
"USC00505010","1956-01-28",32.00,24.98,178.00,102.00,483.00
"USC00505010","1956-01-29",33.08,28.04,0.00,0.00,483.00
"USC00505010","1956-01-30",33.08,26.06,104.00,165.00,533.00
"USC00505010","1956-01-31",30.02,17.06,183.00,224.00,660.00
"USC00505010","1956-02-01",37.94,12.02,102.00,0.00,559.00
"USC00505010","1956-02-02",33.98,15.98,81.00,102.00,610.00
"USC00505010","1956-02-03",30.02,15.98,0.00,0.00,610.00
"USC00505010","1956-02-04",32.00,12.02,0.00,0.00,610.00
"USC00505010","1956-02-05",35.06,26.06,0.00,0.00,610.00
"USC00505010","1956-02-06",33.98,24.08,0.00,0.00,610.00
"USC00505010","1956-02-07",35.06,26.96,107.00,165.00,737.00
"USC00505010","1956-02-08",30.02,-7.96,0.00,0.00,737.00
"USC00505010","1956-02-09",-7.06,-14.08,0.00,0.00,711.00
"USC00505010","1956-02-10",-7.06,-16.96,0.00,0.00,711.00
"USC00505010","1956-02-11",-5.08,-11.92,0.00,0.00,711.00
"USC00505010","1956-02-12",-0.04,-13.00,0.00,0.00,711.00
"USC00505010","1956-02-13",15.08,-34.06,0.00,0.00,660.00
"USC00505010","1956-02-14",24.98,15.08,310.00,254.00,
"USC00505010","1956-02-15",33.98,24.98,145.00,102.00,
"USC00505010","1956-02-16",30.92,15.98,0.00,0.00,914.00
"USC00505010","1956-02-17",19.94,6.08,104.00,157.00,1016.00
"USC00505010","1956-02-18",6.08,-7.96,0.00,0.00,1016.00
"USC00505010","1956-02-19",1.04,-11.02,0.00,0.00,1016.00
"USC00505010","1956-02-20",-4.00,-18.94,0.00,0.00,1016.00
"USC00505010","1956-02-21",-0.94,-29.92,0.00,0.00,1016.00
"USC00505010","1956-02-22",28.04,-5.08,15.00,13.00,1016.00
"USC00505010","1956-02-23",33.98,24.08,0.00,0.00,1016.00
"USC00505010","1956-02-24",32.00,10.04,13.00,18.00,1016.00
"USC00505010","1956-02-25",33.08,24.98,262.00,183.00,1168.00
"USC00505010","1956-02-26",28.04,8.96,0.00,0.00,1168.00
"USC00505010","1956-02-27",8.96,-14.08,0.00,0.00,1168.00
"USC00505010","1956-02-28",-14.08,-23.98,0.00,0.00,1143.00
"USC00505010","1956-02-29",-14.08,-25.06,0.00,0.00,1143.00
"USC00505010","1956-03-01",-9.94,-32.98,0.00,0.00,1143.00
"USC00505010","1956-03-02",14.00,-18.94,0.00,0.00,1143.00
"USC00505010","1956-03-03",-7.96,-18.94,0.00,0.00,1143.00
"USC00505010","1956-03-04",-5.08,-14.98,0.00,0.00,1143.00
"USC00505010","1956-03-05",6.08,-32.98,0.00,0.00,1143.00
"USC00505010","1956-03-06",3.02,-20.02,0.00,0.00,1143.00
"USC00505010","1956-03-07",-0.94,-9.04,0.00,0.00,1143.00
"USC00505010","1956-03-08",1.04,-11.92,0.00,0.00,1143.00
"USC00505010","1956-03-09",26.06,-25.06,0.00,0.00,1143.00
"USC00505010","1956-03-10",33.08,24.98,127.00,152.00,1245.00
"USC00505010","1956-03-11",37.04,30.92,0.00,0.00,1245.00
"USC00505010","1956-03-12",37.94,32.00,0.00,0.00,1194.00
"USC00505010","1956-03-13",39.92,33.08,0.00,0.00,940.00
"USC00505010","1956-03-14",37.04,28.94,0.00,0.00,838.00
"USC00505010","1956-03-15",39.92,32.00,0.00,0.00,787.00
"USC00505010","1956-03-16",41.00,19.94,0.00,0.00,787.00
"USC00505010","1956-03-17",33.98,10.94,246.00,208.00,864.00
"USC00505010","1956-03-18",24.08,-2.92,0.00,0.00,864.00
"USC00505010","1956-03-19",39.92,19.04,0.00,0.00,838.00
"USC00505010","1956-03-20",35.96,32.00,0.00,0.00,813.00
"USC00505010","1956-03-21",35.96,28.94,381.00,0.00,762.00
"USC00505010","1956-03-22",37.04,19.04,0.00,0.00,737.00
"USC00505010","1956-03-23",30.92,17.06,0.00,0.00,737.00
"USC00505010","1956-03-24",23.00,8.96,0.00,0.00,737.00
"USC00505010","1956-03-25",37.94,-5.08,0.00,0.00,711.00
"USC00505010","1956-03-26",39.92,1.04,0.00,0.00,686.00
"USC00505010","1956-03-27",39.02,12.02,0.00,0.00,660.00
"USC00505010","1956-03-28",39.02,1.04,0.00,0.00,635.00
"USC00505010","1956-03-29",30.02,-0.94,0.00,0.00,635.00
"USC00505010","1956-03-30",19.94,-5.98,0.00,0.00,635.00
"USC00505010","1956-03-31",33.08,17.06,10.00,13.00,584.00
"USC00505010","1956-04-01",35.96,30.92,0.00,0.00,584.00
"USC00505010","1956-04-02",37.94,26.06,51.00,25.00,533.00
"USC00505010","1956-04-03",37.04,12.92,0.00,0.00,533.00
"USC00505010","1956-04-04",30.92,10.94,0.00,0.00,533.00
"USC00505010","1956-04-05",12.92,-0.94,0.00,0.00,533.00
"USC00505010","1956-04-06",5.00,-7.96,0.00,0.00,533.00
"USC00505010","1956-04-07",12.92,-18.04,0.00,0.00,533.00
"USC00505010","1956-04-08",37.94,-5.98,0.00,0.00,533.00
"USC00505010","1956-04-09",37.94,26.96,0.00,0.00,483.00
"USC00505010","1956-04-10",28.04,15.98,0.00,0.00,457.00
"USC00505010","1956-04-11",39.02,21.92,5.00,5.00,305.00
"USC00505010","1956-04-12",37.94,32.00,0.00,0.00,305.00
"USC00505010","1956-04-13",35.96,30.02,0.00,0.00,279.00